Wind_Speed
42 41 39 38 39 41 42 43 43 42 42 43 44 44 44 44 44 43 43 43 43 43 43 43 44 44 44 44 44 44 44 44 45 45 46 46 46 47 47 47 48 49
45 44 43 41 40 40 42 44 45 45 43 44 45 45 45 45 44 44 44 44 44 44 44 44 44 45 45 45 44 45 45 45 45 45 46 47 47 48 49 49 50 50
47 46 46 45 43 43 42 43 46 47 45 45 45 45 45 45 45 45 45 45 45 45 45 45 45 45 46 46 46 46 45 45 46 47 48 48 48 49 50 51 51 51
48 47 48 48 47 46 44 44 46 48 48 46 46 46 46 46 46 46 46 46 46 45 45 46 46 47 47 47 47 46 46 46 47 48 49 50 49 50 51 52 52 52
48 48 48 50 50 49 46 45 46 49 50 48 47 47 47 48 47 48 47 47 46 46 46 46 47 48 48 47 47 47 48 48 49 50 51 51 51 52 52 53 53 53
49 48 48 49 51 50 48 46 46 49 51 50 49 48 48 48 48 49 48 48 47 47 47 47 47 48 48 48 48 49 50 50 50 51 52 53 54 54 54 54 54 54
50 49 49 49 50 50 49 48 47 48 50 51 51 50 49 48 48 49 49 49 48 48 48 48 48 48 49 49 50 50 51 51 52 52 53 54 54 55 55 54 55 55
51 51 50 50 49 47 47 48 48 48 49 50 51 52 51 49 48 48 49 49 49 49 49 49 49 49 49 50 51 51 52 52 53 54 54 54 55 55 55 55 54 54
53 53 51 49 46 44 44 46 48 49 50 51 51 51 51 50 49 48 49 50 50 50 51 50 50 50 51 51 52 52 53 53 54 55 55 55 55 56 56 55 54 54
56 54 49 45 42 41 41 44 47 50 51 52 52 51 50 50 49 49 49 50 51 51 51 51 52 52 52 52 53 53 54 54 55 55 56 56 56 56 56 55 55 54
57 52 44 40 39 39 40 43 47 50 51 52 52 51 49 49 49 49 49 50 51 52 52 53 53 53 53 53 53 53 54 54 55 55 55 55 54 55 55 55 55 55
53 45 38 38 39 40 41 44 46 48 49 50 50 49 48 48 49 49 50 50 51 52 53 53 53 53 53 53 53 53 53 54 54 54 54 54 53 54 55 55 56 56
45 39 37 39 41 42 43 45 46 47 47 49 49 48 48 49 49 49 50 50 51 52 53 53 53 53 53 53 53 53 53 53 53 53 53 54 54 54 55 56 56 57
41 37 38 41 43 44 44 45 46 47 48 49 50 50 50 51 51 51 50 51 51 52 53 53 53 54 53 53 53 53 53 53 53 53 54 54 55 55 56 56 58 59
41 40 41 43 44 45 44 44 45 46 47 48 49 50 51 52 52 52 52 52 53 53 53 54 54 54 53 53 53 53 53 53 53 54 55 56 56 56 57 58 59 59
43 42 44 45 46 45 44 44 44 44 45 45 46 47 49 51 52 53 53 54 55 55 56 56 56 55 54 54 53 53 53 53 54 55 56 57 58 58 58 59 59 60
47 46 46 47 46 46 45 45 45 45 45 45 44 44 46 48 51 53 54 55 56 57 57 58 58 57 56 55 54 54 54 55 56 57 58 59 60 60 60 59 59 59
50 49 49 48 47 47 47 47 48 48 47 47 46 45 45 46 49 51 53 54 56 57 57 58 58 57 56 55 55 56 56 56 57 58 59 60 61 61 61 60 60 60
53 52 51 50 49 49 49 50 51 51 50 50 49 47 46 46 48 49 50 51 53 54 55 56 56 56 56 56 56 56 57 57 58 59 60 61 61 61 61 62 62 62
54 54 53 52 52 52 52 53 54 53 52 51 51 50 49 49 49 49 49 50 51 52 53 54 54 55 55 55 56 56 57 58 59 59 60 60 61 61 61 62 63 63
55 55 54 54 54 55 56 56 55 54 53 53 53 53 52 52 51 50 50 50 51 52 53 53 54 54 55 55 56 56 57 58 58 59 60 60 60 60 61 61 62 63
57 56 56 56 57 58 59 59 58 58 57 57 57 56 55 54 53 52 51 51 52 53 53 54 55 55 56 56 56 57 57 58 59 59 60 60 60 61 61 62 63 64
59 59 59 59 61 62 62 62 61 61 60 60 59 58 57 55 54 54 53 53 53 53 54 55 56 56 57 57 57 57 58 58 59 60 61 62 63 64 64 64 65 65
61 62 62 63 64 64 64 64 63 63 62 62 62 61 59 58 57 56 55 55 55 55 55 56 56 57 57 57 58 59 59 60 61 62 63 64 65 66 66 66 65 65
65 65 66 66 66 66 66 66 65 65 65 65 64 63 62 61 60 59 59 58 58 58 58 59 59 59 59 60 60 61 62 63 64 65 66 66 66 66 65 65 64 64
68 68 69 69 68 69 69 68 68 68 67 67 66 65 64 64 63 63 62 62 62 62 62 62 62 62 62 63 64 64 65 66 67 67 67 66 66 65 64 63 62 62
Wind_Direction
304 305 305 304 302 299 296 294 292 288 284 281 280 279 279 279 279 279 280 280 280 280 280 280 281 281 282 283 283 284 285 286 286 286 286 286 286 285 286 286 287 288
303 304 304 305 304 300 295 291 289 287 284 281 280 279 278 278 278 278 280 281 281 281 281 281 281 282 282 283 284 285 286 286 285 285 285 285 285 285 285 286 288 289
302 303 304 305 305 302 297 290 286 285 284 282 281 280 279 279 278 279 280 281 281 281 281 281 282 282 282 283 284 285 285 285 285 284 284 284 284 285 286 287 288 290
300 302 304 305 305 302 297 290 285 283 283 281 280 280 279 279 279 279 279 280 280 280 280 281 281 282 282 283 283 284 284 284 284 284 284 284 285 286 287 288 289 290
299 301 303 305 304 301 295 288 283 281 282 281 279 278 278 278 278 278 279 279 278 279 280 281 282 282 282 282 282 283 284 284 284 284 285 286 287 287 288 289 290 290
298 301 303 303 301 298 293 286 281 278 279 280 279 277 277 277 277 278 278 278 277 278 280 281 281 281 281 281 282 283 284 285 285 286 287 288 288 289 290 290 290 290
298 301 302 301 298 295 291 285 280 277 277 278 279 277 276 276 277 277 278 278 278 278 280 280 280 280 280 281 282 284 285 285 286 286 287 288 289 290 290 290 290 290
298 299 300 298 295 292 288 284 279 277 277 277 277 277 277 277 277 277 277 278 278 279 279 280 279 279 280 281 283 284 285 285 286 287 288 289 290 290 290 290 290 290
297 298 298 295 291 288 286 280 276 276 276 276 276 276 276 276 277 277 278 279 279 280 280 280 280 280 281 282 283 284 284 286 287 288 289 289 290 290 290 290 290 290
296 297 296 291 287 286 283 277 274 274 275 276 276 276 276 276 276 277 278 279 280 281 281 281 281 281 281 282 283 284 285 286 287 288 288 289 289 289 290 290 290 290
295 296 292 286 285 286 283 278 274 274 276 277 278 279 278 277 277 277 277 278 279 279 280 280 281 281 282 283 283 284 285 285 286 287 287 288 288 289 289 290 290 290
294 293 286 281 283 284 282 279 278 278 279 280 281 282 282 281 280 278 278 278 278 278 279 280 281 282 282 283 284 284 285 285 286 286 287 287 288 289 289 290 291 291
293 288 281 280 282 282 281 282 282 283 284 283 284 285 284 283 282 280 279 279 279 279 280 280 281 282 283 284 284 285 285 285 286 286 287 288 288 289 290 290 291 291
291 286 281 280 281 282 284 285 285 286 286 286 286 286 284 283 282 282 281 280 280 280 280 280 280 281 282 283 284 285 286 286 287 287 288 289 290 290 290 290 290 290
287 285 283 282 282 284 286 287 288 288 288 287 286 284 283 283 282 282 282 282 281 281 281 281 281 281 282 283 284 285 286 286 287 287 289 290 290 290 290 290 290 289
285 284 283 284 285 287 288 290 292 293 292 290 287 283 281 281 281 281 281 281 282 282 283 283 283 283 283 284 285 286 287 287 288 289 290 291 291 291 290 289 289 288
286 285 284 285 286 288 290 293 295 296 295 293 289 285 281 279 279 279 279 280 281 282 283 283 283 283 284 285 286 287 288 288 289 290 291 291 292 292 291 290 289 289
286 286 286 286 286 288 291 294 297 297 296 294 291 288 283 280 278 278 278 278 278 279 280 281 282 282 283 285 285 286 287 287 288 289 290 291 291 292 291 291 290 289
285 285 285 286 287 289 292 295 297 297 295 293 292 290 287 283 281 280 279 278 277 277 277 278 279 280 281 282 283 284 285 286 287 288 289 289 290 290 291 291 290 290
284 284 285 286 288 290 293 295 296 296 294 293 292 291 290 288 286 284 283 281 279 278 277 277 277 278 278 279 281 282 283 284 285 286 287 288 289 290 290 290 290 290
283 284 284 286 288 291 293 295 295 295 294 293 292 292 291 290 289 287 285 283 281 280 279 279 278 279 279 280 280 281 282 283 284 285 287 288 289 290 290 290 290 290
282 283 284 286 288 290 292 293 293 294 294 293 293 292 291 290 289 288 286 284 282 281 281 281 281 281 281 282 282 283 284 285 285 286 287 288 290 291 291 291 290 289
281 282 283 285 287 289 290 292 293 293 293 293 292 291 290 289 287 286 285 284 283 283 283 283 283 283 284 284 285 285 286 286 287 287 288 289 290 292 292 291 290 289
279 281 282 285 287 288 290 291 291 292 292 291 291 290 288 287 286 285 285 285 285 285 285 285 285 285 285 286 286 286 286 287 288 289 290 290 291 291 291 290 289 288
279 280 282 284 286 288 289 289 289 289 289 289 289 288 287 286 285 285 285 285 286 286 286 287 286 287 287 287 286 286 287 287 288 289 290 290 291 290 290 289 288 288
279 281 283 284 286 287 287 287 287 287 287 287 287 287 286 285 285 285 286 286 286 287 288 288 288 288 287 287 287 287 287 288 289 289 290 290 290 290 289 288 287 287
Height
5809 5808 5806 5805 5803 5801 5799 5797 5796 5794 5793 5791 5789 5788 5787 5786 5785 5784 5783 5782 5781 5779 5778 5776 5775 5774 5772 5771 5770 5768 5767 5765 5763 5761 5760 5759 5758 5756 5755 5753 5752 5750
5803 5802 5801 5799 5798 5797 5795 5792 5790 5789 5787 5786 5784 5783 5782 5780 5779 5778 5777 5776 5775 5774 5773 5771 5770 5768 5767 5766 5764 5763 5761 5760 5758 5756 5755 5753 5752 5750 5749 5747 5745 5744
5798 5796 5795 5793 5792 5791 5789 5787 5785 5783 5782 5780 5779 5777 5776 5775 5774 5773 5771 5770 5769 5768 5767 5766 5764 5763 5761 5760 5759 5757 5756 5755 5753 5751 5749 5748 5746 5745 5743 5741 5739 5738
5792 5791 5789 5788 5786 5785 5783 5781 5779 5777 5776 5775 5773 5771 5770 5769 5768 5767 5765 5764 5763 5762 5761 5760 5759 5757 5756 5754 5753 5751 5750 5749 5747 5745 5743 5742 5740 5739 5737 5735 5734 5732
5787 5786 5784 5782 5780 5779 5777 5775 5773 5772 5770 5769 5767 5766 5764 5763 5762 5761 5759 5758 5757 5756 5755 5754 5753 5751 5750 5749 5747 5746 5744 5743 5741 5739 5737 5736 5734 5732 5731 5729 5727 5726
5782 5781 5780 5777 5775 5773 5770 5769 5767 5766 5764 5762 5761 5760 5758 5757 5756 5754 5753 5752 5751 5750 5749 5748 5746 5745 5744 5742 5741 5739 5738 5736 5735 5733 5731 5729 5727 5726 5724 5722 5720 5718
5776 5775 5774 5772 5769 5767 5764 5762 5761 5759 5758 5756 5754 5753 5752 5751 5750 5748 5747 5746 5745 5744 5743 5741 5740 5738 5737 5736 5735 5733 5732 5730 5728 5727 5725 5723 5721 5719 5718 5716 5714 5712
5770 5769 5768 5766 5763 5761 5758 5756 5754 5753 5751 5749 5748 5746 5745 5744 5743 5742 5741 5740 5739 5738 5736 5735 5734 5732 5731 5730 5729 5727 5726 5724 5722 5720 5719 5717 5715 5713 5711 5709 5708 5706
5764 5763 5761 5759 5757 5755 5752 5750 5748 5747 5745 5743 5742 5741 5740 5738 5737 5736 5735 5734 5733 5732 5730 5729 5728 5726 5725 5724 5722 5721 5719 5717 5715 5713 5711 5710 5708 5706 5704 5702 5701 5699
5757 5756 5755 5753 5751 5749 5746 5744 5742 5740 5739 5737 5736 5735 5735 5733 5732 5731 5730 5728 5727 5725 5724 5723 5721 5720 5719 5717 5716 5714 5712 5711 5709 5707 5705 5703 5701 5699 5697 5695 5694 5692
5750 5749 5748 5746 5744 5743 5740 5738 5736 5734 5733 5732 5730 5729 5729 5728 5727 5725 5724 5723 5721 5719 5718 5716 5715 5713 5712 5711 5709 5708 5706 5704 5702 5700 5699 5697 5695 5693 5691 5689 5687 5686
5743 5743 5742 5740 5738 5736 5734 5732 5730 5728 5727 5726 5725 5724 5723 5722 5721 5719 5718 5716 5715 5713 5712 5710 5709 5707 5706 5704 5703 5701 5699 5698 5696 5694 5692 5691 5689 5687 5685 5683 5681 5679
5736 5736 5735 5733 5731 5729 5728 5726 5724 5723 5722 5720 5719 5718 5716 5715 5714 5713 5711 5710 5708 5707 5706 5704 5703 5701 5700 5698 5696 5695 5693 5691 5690 5688 5686 5684 5683 5681 5678 5676 5674 5672
5730 5729 5728 5726 5725 5724 5723 5721 5720 5718 5717 5715 5713 5711 5710 5709 5707 5706 5705 5703 5702 5701 5700 5698 5697 5695 5693 5692 5690 5688 5687 5685 5683 5681 5679 5677 5676 5674 5672 5670 5668 5665
5723 5722 5721 5720 5719 5718 5717 5716 5715 5713 5711 5710 5708 5706 5704 5703 5701 5700 5699 5697 5696 5695 5694 5692 5690 5689 5687 5685 5684 5682 5681 5679 5677 5675 5673 5670 5669 5667 5665 5663 5661 5658
5716 5715 5714 5713 5712 5712 5711 5710 5709 5707 5706 5704 5702 5701 5699 5697 5696 5694 5693 5691 5690 5689 5687 5686 5684 5682 5680 5679 5677 5676 5674 5672 5670 5668 5666 5664 5662 5660 5658 5656 5653 5651
5708 5708 5708 5707 5706 5705 5704 5703 5702 5701 5699 5697 5696 5695 5693 5691 5690 5688 5687 5685 5684 5683 5681 5679 5677 5675 5674 5672 5671 5669 5667 5665 5663 5661 5659 5657 5655 5653 5650 5648 5646 5644
5700 5700 5700 5699 5699 5697 5696 5695 5694 5693 5692 5690 5689 5688 5686 5685 5683 5682 5681 5679 5678 5677 5675 5673 5671 5669 5668 5666 5664 5662 5660 5658 5656 5654 5652 5650 5648 5645 5643 5641 5639 5637
5693 5693 5692 5691 5691 5689 5688 5687 5686 5685 5684 5682 5681 5680 5679 5678 5676 5675 5674 5672 5671 5670 5669 5667 5665 5663 5661 5659 5657 5655 5653 5651 5649 5647 5645 5643 5640 5638 5636 5634 5632 5629
5686 5686 5685 5684 5683 5682 5681 5679 5678 5677 5676 5674 5673 5672 5671 5670 5668 5667 5666 5665 5664 5663 5661 5660 5658 5656 5654 5652 5651 5649 5646 5644 5642 5640 5638 5636 5633 5631 5629 5626 5624 5621
5679 5679 5678 5677 5676 5674 5673 5672 5670 5669 5668 5667 5665 5664 5663 5662 5660 5659 5658 5657 5656 5655 5653 5652 5650 5648 5647 5645 5643 5641 5639 5637 5635 5633 5631 5628 5625 5623 5621 5618 5616 5613
5672 5672 5671 5670 5668 5667 5665 5664 5663 5661 5660 5659 5657 5656 5655 5653 5652 5651 5650 5649 5647 5646 5645 5643 5642 5640 5638 5637 5635 5633 5631 5629 5627 5625 5623 5621 5618 5616 5613 5611 5608 5605
5665 5664 5663 5662 5661 5659 5658 5656 5655 5653 5652 5651 5649 5648 5646 5645 5644 5642 5641 5640 5639 5638 5636 5635 5633 5631 5630 5628 5627 5625 5623 5621 5619 5616 5615 5612 5610 5608 5605 5602 5599 5597
5657 5656 5655 5654 5652 5651 5650 5648 5647 5645 5644 5643 5641 5640 5639 5637 5636 5634 5633 5632 5630 5629 5627 5625 5624 5622 5621 5620 5618 5616 5614 5612 5610 5607 5605 5603 5601 5599 5596 5593 5590 5588
5649 5648 5647 5645 5644 5643 5641 5640 5639 5637 5636 5635 5633 5632 5630 5629 5627 5626 5624 5623 5621 5620 5618 5616 5615 5613 5612 5611 5609 5608 5606 5604 5602 5599 5596 5594 5592 5589 5587 5584 5581 5579
5641 5640 5638 5637 5635 5634 5633 5631 5630 5628 5627 5626 5624 5623 5622 5620 5619 5617 5615 5614 5612 5611 5609 5608 5606 5604 5603 5601 5600 5598 5596 5594 5592 5590 5587 5585 5582 5580 5577 5574 5572 5570